Location: ??? ?????
(30.6482°N, 60.5850°E)
Time: 07:28:50
(UTC+00:00)

CZ-2C R/B - Pass Details

Date: 09 April 2020
Orbit: 639 x 705 km, 98.4° (Epoch: 26 May)

Event Time Altitude Azimuth Distance (km) Brightness Sun altitude
Rises 15:35:58 0° 15° (NNE) 3,053 7.2 -16.2°
Reaches altitude 10° 15:38:15 10° 18° (NNE) 2,124 6.3 -16.7°
Maximum altitude 15:42:52 67° 102° (ESE) 727 3.6 -17.6°
Drops below altitude 10° 15:47:22 10° 184° (S) 2,070 6.1 -18.5°
Sets 15:49:34 0° 187° (S) 2,968 6.9 -19.0°
